Weather in Kitale

Kenya     1°00′47″N   35°00′13″E
temp.,
°C
wind,
m/s
gust,
m/s
humid.,
%
clouds,
%
prec.,
mm/h
press.,
hPa
HPBL,
m
20 january, thu
thu2000:00+15n2389100 0.1 101786
03:00+13nne1191100 0.1 101611
06:00+12nne1190100 0.0 101711
09:00+18nne1264100 0.0 1018355
12:00+25n2334100 0.0 10142064
15:00+27nnw4327100 0.0 10092910
18:00+22nne2439100 0.0 1011104
21:00+18nnw41054100 0.0 1014374
21 january, fri
fri2100:00+16n2664100 0.0 1015159
03:00+14ne117355 0.0 101512
06:00+14ne1172100 0.0 101612
09:00+20nne1250100 0.0 1016488
12:00+25nnw2332100 0.0 10132453
15:00+27nne4326100 0.0 10092917
18:00+21ne2444100 0.0 1011130
21:00+19nnw4948100 0.0 1014429
22 january, sat
sat2200:00+15n276296 0.0 1016138
03:00+14ne1267100 0.0 101420
06:00+13nne1170100 0.0 101511
09:00+20ne114525 0.0 1015419
12:00+27nnw2225100 0.0 10112079
15:00+29n112058 0.0 10073053
18:00+24nne3533100 0.0 1008373
21:00+18nnw2450100 0.0 1014131
23 january, sun
sun2300:00+15n2361100 0.0 101655
03:00+14ne1165100 0.0 101410
06:00+14n0166100 0.0 101512
09:00+18ene0153100 0.0 1016216
12:00+27nw1131100 0.0 10121968
15:00+27nnw3226100 0.0 10073015
18:00+21e1340100 0.0 101084
21:00+19nnw3741100 0.0 1013253
24 january, mon
mon2400:00+15n2346100 0.0 101556
03:00+14nne2249100 0.0 101428
06:00+13ne1153100 0.0 101512
09:00+20ne1236100 0.0 1015306
12:00+26n4522100 0.0 10102209
15:00+28n4320100 0.0 10082823
18:00+25n4625100 0.0 1008653
21:00+19w135093 0.1 101377